Year,Month,Day,Hour,Minute,Value (Times are PST for insolation in W/m^2)
2012,06,15,00,00,0.00
2012,06,15,00,01,0.00
2012,06,15,00,02,0.00
2012,06,15,00,03,0.00
2012,06,15,00,04,0.00
2012,06,15,00,05,0.00
2012,06,15,00,06,0.00
2012,06,15,00,07,0.00
2012,06,15,00,08,0.00
2012,06,15,00,09,0.00
2012,06,15,00,10,0.00
2012,06,15,00,11,0.00
2012,06,15,00,12,0.00
2012,06,15,00,13,0.00
2012,06,15,00,14,0.00
2012,06,15,00,15,0.00
2012,06,15,00,16,0.00
2012,06,15,00,17,0.00
2012,06,15,00,18,0.00
2012,06,15,00,19,0.00
2012,06,15,00,20,0.00
2012,06,15,00,21,0.00
2012,06,15,00,22,0.00
2012,06,15,00,23,0.00
2012,06,15,00,24,0.00
2012,06,15,00,25,0.00
2012,06,15,00,26,0.00
2012,06,15,00,27,0.00
2012,06,15,00,28,0.00
2012,06,15,00,29,0.00
2012,06,15,00,30,0.00
2012,06,15,00,31,0.00
2012,06,15,00,32,0.00
2012,06,15,00,33,0.00
2012,06,15,00,34,0.00
2012,06,15,00,35,0.00
2012,06,15,00,36,0.00
2012,06,15,00,37,0.00
2012,06,15,00,38,0.00
2012,06,15,00,39,0.00
2012,06,15,00,40,0.00
2012,06,15,00,41,0.00
2012,06,15,00,42,0.00
2012,06,15,00,43,0.00
2012,06,15,00,44,0.00
2012,06,15,00,45,0.00
2012,06,15,00,46,0.00
2012,06,15,00,47,0.00
2012,06,15,00,48,0.00
2012,06,15,00,49,0.00
2012,06,15,00,50,0.00
2012,06,15,00,51,0.00
2012,06,15,00,52,0.00
2012,06,15,00,53,0.00
2012,06,15,00,54,0.00
2012,06,15,00,55,0.00
2012,06,15,00,56,0.00
2012,06,15,00,57,0.00
2012,06,15,00,58,0.00
2012,06,15,00,59,0.00
2012,06,15,01,00,0.00
2012,06,15,01,01,0.00
2012,06,15,01,02,0.00
2012,06,15,01,03,0.00
2012,06,15,01,04,0.00
2012,06,15,01,05,0.00
2012,06,15,01,06,0.00
2012,06,15,01,07,0.00
2012,06,15,01,08,0.00
2012,06,15,01,09,0.00
2012,06,15,01,10,0.00
2012,06,15,01,11,0.00
2012,06,15,01,12,0.00
2012,06,15,01,13,0.00
2012,06,15,01,14,0.00
2012,06,15,01,15,0.00
2012,06,15,01,16,0.00
2012,06,15,01,17,0.00
2012,06,15,01,18,0.00
2012,06,15,01,19,0.00
2012,06,15,01,20,0.00
2012,06,15,01,21,0.00
2012,06,15,01,22,0.00
2012,06,15,01,23,0.00
2012,06,15,01,24,0.00
2012,06,15,01,25,0.00
2012,06,15,01,26,0.00
2012,06,15,01,27,0.00
2012,06,15,01,28,0.00
2012,06,15,01,29,0.00
2012,06,15,01,30,0.00
2012,06,15,01,31,0.00
2012,06,15,01,32,0.00
2012,06,15,01,33,0.00
2012,06,15,01,34,0.00
2012,06,15,01,35,0.00
2012,06,15,01,36,0.00
2012,06,15,01,37,0.00
2012,06,15,01,38,0.00
2012,06,15,01,39,0.00
2012,06,15,01,40,0.00
2012,06,15,01,41,0.00
2012,06,15,01,42,0.00
2012,06,15,01,43,0.00
2012,06,15,01,44,0.00
2012,06,15,01,45,0.00
2012,06,15,01,46,0.00
2012,06,15,01,47,0.00
2012,06,15,01,48,0.00
2012,06,15,01,49,0.00
2012,06,15,01,50,0.00
2012,06,15,01,51,0.00
2012,06,15,01,52,0.00
2012,06,15,01,53,0.00
2012,06,15,01,54,0.00
2012,06,15,01,55,0.00
2012,06,15,01,56,0.00
2012,06,15,01,57,0.00
2012,06,15,01,58,0.00
2012,06,15,01,59,0.00
2012,06,15,02,00,0.00
2012,06,15,02,01,0.00
2012,06,15,02,02,0.00
2012,06,15,02,03,0.00
2012,06,15,02,04,0.00
2012,06,15,02,05,0.00
2012,06,15,02,06,0.00
2012,06,15,02,07,0.00
2012,06,15,02,08,0.00
2012,06,15,02,09,0.00
2012,06,15,02,10,0.00
2012,06,15,02,11,0.00
2012,06,15,02,12,0.00
2012,06,15,02,13,0.00
2012,06,15,02,14,0.00
2012,06,15,02,15,0.00
2012,06,15,02,16,0.00
2012,06,15,02,17,0.00
2012,06,15,02,18,0.00
2012,06,15,02,19,0.00
2012,06,15,02,20,0.00
2012,06,15,02,21,0.00
2012,06,15,02,22,0.00
2012,06,15,02,23,0.00
2012,06,15,02,24,0.00
2012,06,15,02,25,0.00
2012,06,15,02,26,0.00
2012,06,15,02,27,0.00
2012,06,15,02,28,0.00
2012,06,15,02,29,0.00
2012,06,15,02,30,0.00
2012,06,15,02,31,0.00
2012,06,15,02,32,0.00
2012,06,15,02,33,0.00
2012,06,15,02,34,0.00
2012,06,15,02,35,0.00
2012,06,15,02,36,0.00
2012,06,15,02,37,0.00
2012,06,15,02,38,0.00
2012,06,15,02,39,0.00
2012,06,15,02,40,0.00
2012,06,15,02,41,0.00
2012,06,15,02,42,0.00
2012,06,15,02,43,0.00
2012,06,15,02,44,0.00
2012,06,15,02,45,0.00
2012,06,15,02,46,0.00
2012,06,15,02,47,0.00
2012,06,15,02,48,0.00
2012,06,15,02,49,0.00
2012,06,15,02,50,0.00
2012,06,15,02,51,0.00
2012,06,15,02,52,0.00
2012,06,15,02,53,0.00
2012,06,15,02,54,0.00
2012,06,15,02,55,0.00
2012,06,15,02,56,0.00
2012,06,15,02,57,0.00
2012,06,15,02,58,0.00
2012,06,15,02,59,0.00
2012,06,15,03,00,0.00
2012,06,15,03,01,0.00
2012,06,15,03,02,0.00
2012,06,15,03,03,0.00
2012,06,15,03,04,0.00
2012,06,15,03,05,0.00
2012,06,15,03,06,0.00
2012,06,15,03,07,0.00
2012,06,15,03,08,0.00
2012,06,15,03,09,0.00
2012,06,15,03,10,0.00
2012,06,15,03,11,0.00
2012,06,15,03,12,0.00
2012,06,15,03,13,0.00
2012,06,15,03,14,0.00
2012,06,15,03,15,0.00
2012,06,15,03,16,0.00
2012,06,15,03,17,0.00
2012,06,15,03,18,0.00
2012,06,15,03,19,0.00
2012,06,15,03,20,0.00
2012,06,15,03,21,0.00
2012,06,15,03,22,0.00
2012,06,15,03,23,0.00
2012,06,15,03,24,0.00
2012,06,15,03,25,0.00
2012,06,15,03,26,0.00
2012,06,15,03,27,0.00
2012,06,15,03,28,0.00
2012,06,15,03,29,0.00
2012,06,15,03,30,0.00
2012,06,15,03,31,0.00
2012,06,15,03,32,0.00
2012,06,15,03,33,0.00
2012,06,15,03,34,0.00
2012,06,15,03,35,0.00
2012,06,15,03,36,0.00
2012,06,15,03,37,0.00
2012,06,15,03,38,0.00
2012,06,15,03,39,0.00
2012,06,15,03,40,0.00
2012,06,15,03,41,0.00
2012,06,15,03,42,0.00
2012,06,15,03,43,0.00
2012,06,15,03,44,0.00
2012,06,15,03,45,0.00
2012,06,15,03,46,0.00
2012,06,15,03,47,0.00
2012,06,15,03,48,0.00
2012,06,15,03,49,0.00
2012,06,15,03,50,0.00
2012,06,15,03,51,0.00
2012,06,15,03,52,0.00
2012,06,15,03,53,0.00
2012,06,15,03,54,0.00
2012,06,15,03,55,0.00
2012,06,15,03,56,0.00
2012,06,15,03,57,0.00
2012,06,15,03,58,0.00
2012,06,15,03,59,0.00
2012,06,15,04,00,0.00
2012,06,15,04,01,0.00
2012,06,15,04,02,0.00
2012,06,15,04,03,0.00
2012,06,15,04,04,0.00
2012,06,15,04,05,0.00
2012,06,15,04,06,0.00
2012,06,15,04,07,0.00
2012,06,15,04,08,0.00
2012,06,15,04,09,0.00
2012,06,15,04,10,0.00
2012,06,15,04,11,0.00
2012,06,15,04,12,0.00
2012,06,15,04,13,0.00
2012,06,15,04,14,0.00
2012,06,15,04,15,0.00
2012,06,15,04,16,0.00
2012,06,15,04,17,0.00
2012,06,15,04,18,0.00
2012,06,15,04,19,0.00
2012,06,15,04,20,0.00
2012,06,15,04,21,0.00
2012,06,15,04,22,0.00
2012,06,15,04,23,0.00
2012,06,15,04,24,0.00
2012,06,15,04,25,0.00
2012,06,15,04,26,0.00
2012,06,15,04,27,0.00
2012,06,15,04,28,0.00
2012,06,15,04,29,0.00
2012,06,15,04,30,0.00
2012,06,15,04,31,0.00
2012,06,15,04,32,0.00
2012,06,15,04,33,0.00
2012,06,15,04,34,0.00
2012,06,15,04,35,0.00
2012,06,15,04,36,0.00
2012,06,15,04,37,0.00
2012,06,15,04,38,0.00
2012,06,15,04,39,0.00
2012,06,15,04,40,0.00
2012,06,15,04,41,0.00
2012,06,15,04,42,0.00
2012,06,15,04,43,0.00
2012,06,15,04,44,0.00
2012,06,15,04,45,0.00
2012,06,15,04,46,0.00
2012,06,15,04,47,0.00
2012,06,15,04,48,0.00
2012,06,15,04,49,0.00
2012,06,15,04,50,0.00
2012,06,15,04,51,0.00
2012,06,15,04,52,0.00
2012,06,15,04,53,0.00
2012,06,15,04,54,0.00
2012,06,15,04,55,0.00
2012,06,15,04,56,0.00
2012,06,15,04,57,0.00
2012,06,15,04,58,0.00
2012,06,15,04,59,0.00
2012,06,15,05,00,0.00
2012,06,15,05,01,0.00
2012,06,15,05,02,0.00
2012,06,15,05,03,0.00
2012,06,15,05,04,0.00
2012,06,15,05,05,0.00
2012,06,15,05,06,0.00
2012,06,15,05,07,3.50
2012,06,15,05,08,5.00
2012,06,15,05,09,5.00
2012,06,15,05,10,5.00
2012,06,15,05,11,5.00
2012,06,15,05,12,5.00
2012,06,15,05,13,5.00
2012,06,15,05,14,6.00
2012,06,15,05,15,7.00
2012,06,15,05,16,7.00
2012,06,15,05,17,7.00
2012,06,15,05,18,7.00
2012,06,15,05,19,7.00
2012,06,15,05,20,7.00
2012,06,15,05,21,7.00
2012,06,15,05,22,7.90
2012,06,15,05,23,9.00
2012,06,15,05,24,9.00
2012,06,15,05,25,9.00
2012,06,15,05,26,9.00
2012,06,15,05,27,9.00
2012,06,15,05,28,9.00
2012,06,15,05,29,9.00
2012,06,15,05,30,9.00
2012,06,15,05,31,9.00
2012,06,15,05,32,10.20
2012,06,15,05,33,11.00
2012,06,15,05,34,11.00
2012,06,15,05,35,11.00
2012,06,15,05,36,11.10
2012,06,15,05,37,12.00
2012,06,15,05,38,12.80
2012,06,15,05,39,14.00
2012,06,15,05,40,14.00
2012,06,15,05,41,14.00
2012,06,15,05,42,14.00
2012,06,15,05,43,12.30
2012,06,15,05,44,14.20
2012,06,15,05,45,16.40
2012,06,15,05,46,18.00
2012,06,15,05,47,18.00
2012,06,15,05,48,17.00
2012,06,15,05,49,16.00
2012,06,15,05,50,17.40
2012,06,15,05,51,20.40
2012,06,15,05,52,21.00
2012,06,15,05,53,21.30
2012,06,15,05,54,23.50
2012,06,15,05,55,25.00
2012,06,15,05,56,24.10
2012,06,15,05,57,23.00
2012,06,15,05,58,24.30
2012,06,15,05,59,25.00
2012,06,15,06,00,25.00
2012,06,15,06,01,23.10
2012,06,15,06,02,22.60
2012,06,15,06,03,21.00
2012,06,15,06,04,21.00
2012,06,15,06,05,20.00
2012,06,15,06,06,19.00
2012,06,15,06,07,19.00
2012,06,15,06,08,19.00
2012,06,15,06,09,20.80
2012,06,15,06,10,21.00
2012,06,15,06,11,21.00
2012,06,15,06,12,21.00
2012,06,15,06,13,21.90
2012,06,15,06,14,23.00
2012,06,15,06,15,24.20
2012,06,15,06,16,25.00
2012,06,15,06,17,27.50
2012,06,15,06,18,30.00
2012,06,15,06,19,32.20
2012,06,15,06,20,33.00
2012,06,15,06,21,33.80
2012,06,15,06,22,35.90
2012,06,15,06,23,38.10
2012,06,15,06,24,39.00
2012,06,15,06,25,41.20
2012,06,15,06,26,45.50
2012,06,15,06,27,49.20
2012,06,15,06,28,51.40
2012,06,15,06,29,53.30
2012,06,15,06,30,54.80
2012,06,15,06,31,57.00
2012,06,15,06,32,58.00
2012,06,15,06,33,56.50
2012,06,15,06,34,56.00
2012,06,15,06,35,62.30
2012,06,15,06,36,67.00
2012,06,15,06,37,67.50
2012,06,15,06,38,69.00
2012,06,15,06,39,69.50
2012,06,15,06,40,71.10
2012,06,15,06,41,78.00
2012,06,15,06,42,90.10
2012,06,15,06,43,102.50
2012,06,15,06,44,157.70
2012,06,15,06,45,142.50
2012,06,15,06,46,145.20
2012,06,15,06,47,132.50
2012,06,15,06,48,142.10
2012,06,15,06,49,129.80
2012,06,15,06,50,95.60
2012,06,15,06,51,90.40
2012,06,15,06,52,75.70
2012,06,15,06,53,70.60
2012,06,15,06,54,77.00
2012,06,15,06,55,79.60
2012,06,15,06,56,82.10
2012,06,15,06,57,77.00
2012,06,15,06,58,94.30
2012,06,15,06,59,120.00
2012,06,15,07,00,172.00
2012,06,15,07,01,184.30
2012,06,15,07,02,169.30
2012,06,15,07,03,142.10
2012,06,15,07,04,108.70
2012,06,15,07,05,95.90
2012,06,15,07,06,96.30
2012,06,15,07,07,106.10
2012,06,15,07,08,114.30
2012,06,15,07,09,125.60
2012,06,15,07,10,124.30
2012,06,15,07,11,118.00
2012,06,15,07,12,127.50
2012,06,15,07,13,154.10
2012,06,15,07,14,212.80
2012,06,15,07,15,258.00
2012,06,15,07,16,252.90
2012,06,15,07,17,171.00
2012,06,15,07,18,135.60
2012,06,15,07,19,136.00
2012,06,15,07,20,143.10
2012,06,15,07,21,150.50
2012,06,15,07,22,160.70
2012,06,15,07,23,167.00
2012,06,15,07,24,167.00
2012,06,15,07,25,220.30
2012,06,15,07,26,262.90
2012,06,15,07,27,197.30
2012,06,15,07,28,180.10
2012,06,15,07,29,175.00
2012,06,15,07,30,173.50
2012,06,15,07,31,191.70
2012,06,15,07,32,200.60
2012,06,15,07,33,188.00
2012,06,15,07,34,181.80
2012,06,15,07,35,182.80
2012,06,15,07,36,183.20
2012,06,15,07,37,185.00
2012,06,15,07,38,185.00
2012,06,15,07,39,184.10
2012,06,15,07,40,183.00
2012,06,15,07,41,183.00
2012,06,15,07,42,185.20
2012,06,15,07,43,191.10
2012,06,15,07,44,209.60
2012,06,15,07,45,199.60
2012,06,15,07,46,197.80
2012,06,15,07,47,198.90
2012,06,15,07,48,195.10
2012,06,15,07,49,191.30
2012,06,15,07,50,187.20
2012,06,15,07,51,186.00
2012,06,15,07,52,187.70
2012,06,15,07,53,192.30
2012,06,15,07,54,195.00
2012,06,15,07,55,194.40
2012,06,15,07,56,192.60
2012,06,15,07,57,192.00
2012,06,15,07,58,192.60
2012,06,15,07,59,193.00
2012,06,15,08,00,194.60
2012,06,15,08,01,198.80
2012,06,15,08,02,203.60
2012,06,15,08,03,212.90
2012,06,15,08,04,209.60
2012,06,15,08,05,211.00
2012,06,15,08,06,209.90
2012,06,15,08,07,210.30
2012,06,15,08,08,259.70
2012,06,15,08,09,271.40
2012,06,15,08,10,230.10
2012,06,15,08,11,224.80
2012,06,15,08,12,242.20
2012,06,15,08,13,256.90
2012,06,15,08,14,306.10
2012,06,15,08,15,308.60
2012,06,15,08,16,239.40
2012,06,15,08,17,196.20
2012,06,15,08,18,184.00
2012,06,15,08,19,183.40
2012,06,15,08,20,186.50
2012,06,15,08,21,191.80
2012,06,15,08,22,208.20
2012,06,15,08,23,220.00
2012,06,15,08,24,230.50
2012,06,15,08,25,237.00
2012,06,15,08,26,264.80
2012,06,15,08,27,282.10
2012,06,15,08,28,501.50
2012,06,15,08,29,475.30
2012,06,15,08,30,408.40
2012,06,15,08,31,352.40
2012,06,15,08,32,331.50
2012,06,15,08,33,311.30
2012,06,15,08,34,306.00
2012,06,15,08,35,304.20
2012,06,15,08,36,300.50
2012,06,15,08,37,285.00
2012,06,15,08,38,283.70
2012,06,15,08,39,277.90
2012,06,15,08,40,286.90
2012,06,15,08,41,293.00
2012,06,15,08,42,289.20
2012,06,15,08,43,272.00
2012,06,15,08,44,248.10
2012,06,15,08,45,246.20
2012,06,15,08,46,261.70
2012,06,15,08,47,271.20
2012,06,15,08,48,282.80
2012,06,15,08,49,303.60
2012,06,15,08,50,325.30
2012,06,15,08,51,362.80
2012,06,15,08,52,339.00
2012,06,15,08,53,327.00
2012,06,15,08,54,364.30
2012,06,15,08,55,333.80
2012,06,15,08,56,327.00
2012,06,15,08,57,320.30
2012,06,15,08,58,318.50
2012,06,15,08,59,327.80
2012,06,15,09,00,343.00
2012,06,15,09,01,376.60
2012,06,15,09,02,343.70
2012,06,15,09,03,351.80
2012,06,15,09,04,363.00
2012,06,15,09,05,373.70
2012,06,15,09,06,375.30
2012,06,15,09,07,356.40
2012,06,15,09,08,351.60
2012,06,15,09,09,347.00
2012,06,15,09,10,355.50
2012,06,15,09,11,332.30
2012,06,15,09,12,324.30
2012,06,15,09,13,340.00
2012,06,15,09,14,354.00
2012,06,15,09,15,366.90
2012,06,15,09,16,399.90
2012,06,15,09,17,389.10
2012,06,15,09,18,374.80
2012,06,15,09,19,368.10
2012,06,15,09,20,357.00
2012,06,15,09,21,346.50
2012,06,15,09,22,335.10
2012,06,15,09,23,326.50
2012,06,15,09,24,316.30
2012,06,15,09,25,309.40
2012,06,15,09,26,306.40
2012,06,15,09,27,312.90
2012,06,15,09,28,326.90
2012,06,15,09,29,336.60
2012,06,15,09,30,323.40
2012,06,15,09,31,309.10
2012,06,15,09,32,301.10
2012,06,15,09,33,297.70
2012,06,15,09,34,300.00
2012,06,15,09,35,311.20
2012,06,15,09,36,322.30
2012,06,15,09,37,329.10
2012,06,15,09,38,324.50
2012,06,15,09,39,325.30
2012,06,15,09,40,337.50
2012,06,15,09,41,348.30
2012,06,15,09,42,353.50
2012,06,15,09,43,359.00
2012,06,15,09,44,371.80
2012,06,15,09,45,382.20
2012,06,15,09,46,423.20
2012,06,15,09,47,462.70
2012,06,15,09,48,391.00
2012,06,15,09,49,394.90
2012,06,15,09,50,400.30
2012,06,15,09,51,388.50
2012,06,15,09,52,381.50
2012,06,15,09,53,377.60
2012,06,15,09,54,365.40
2012,06,15,09,55,363.10
2012,06,15,09,56,367.80
2012,06,15,09,57,375.30
2012,06,15,09,58,377.60
2012,06,15,09,59,376.00
2012,06,15,10,00,376.00
2012,06,15,10,01,377.90
2012,06,15,10,02,380.70
2012,06,15,10,03,375.80
2012,06,15,10,04,362.00
2012,06,15,10,05,347.30
2012,06,15,10,06,336.10
2012,06,15,10,07,327.30
2012,06,15,10,08,321.40
2012,06,15,10,09,316.70
2012,06,15,10,10,315.00
2012,06,15,10,11,312.70
2012,06,15,10,12,310.30
2012,06,15,10,13,306.70
2012,06,15,10,14,303.00
2012,06,15,10,15,302.00
2012,06,15,10,16,302.00
2012,06,15,10,17,302.00
2012,06,15,10,18,301.10
2012,06,15,10,19,295.30
2012,06,15,10,20,295.80
2012,06,15,10,21,300.60
2012,06,15,10,22,306.00
2012,06,15,10,23,311.00
2012,06,15,10,24,314.80
2012,06,15,10,25,316.00
2012,06,15,10,26,313.50
2012,06,15,10,27,308.50
2012,06,15,10,28,297.40
2012,06,15,10,29,284.50
2012,06,15,10,30,273.80
2012,06,15,10,31,266.80
2012,06,15,10,32,264.00
2012,06,15,10,33,264.60
2012,06,15,10,34,267.90
2012,06,15,10,35,273.30
2012,06,15,10,36,281.10
2012,06,15,10,37,291.20
2012,06,15,10,38,298.20
2012,06,15,10,39,303.50
2012,06,15,10,40,307.40
2012,06,15,10,41,311.40
2012,06,15,10,42,315.10
2012,06,15,10,43,317.60
2012,06,15,10,44,321.60
2012,06,15,10,45,325.30
2012,06,15,10,46,327.00
2012,06,15,10,47,325.70
2012,06,15,10,48,321.10
2012,06,15,10,49,314.30
2012,06,15,10,50,309.80
2012,06,15,10,51,309.00
2012,06,15,10,52,310.60
2012,06,15,10,53,309.10
2012,06,15,10,54,305.30
2012,06,15,10,55,300.50
2012,06,15,10,56,300.00
2012,06,15,10,57,304.90
2012,06,15,10,58,311.80
2012,06,15,10,59,320.50
2012,06,15,11,00,330.00
2012,06,15,11,01,341.50
2012,06,15,11,02,359.60
2012,06,15,11,03,375.70
2012,06,15,11,04,391.60
2012,06,15,11,05,409.90
2012,06,15,11,06,433.40
2012,06,15,11,07,466.10
2012,06,15,11,08,498.60
2012,06,15,11,09,528.10
2012,06,15,11,10,547.30
2012,06,15,11,11,521.50
2012,06,15,11,12,502.40
2012,06,15,11,13,485.10
2012,06,15,11,14,456.30
2012,06,15,11,15,423.30
2012,06,15,11,16,407.80
2012,06,15,11,17,413.30
2012,06,15,11,18,425.40
2012,06,15,11,19,440.90
2012,06,15,11,20,455.70
2012,06,15,11,21,477.00
2012,06,15,11,22,490.30
2012,06,15,11,23,493.10
2012,06,15,11,24,494.10
2012,06,15,11,25,492.20
2012,06,15,11,26,494.60
2012,06,15,11,27,498.70
2012,06,15,11,28,486.70
2012,06,15,11,29,484.60
2012,06,15,11,30,483.00
2012,06,15,11,31,484.60
2012,06,15,11,32,486.00
2012,06,15,11,33,485.00
2012,06,15,11,34,491.40
2012,06,15,11,35,488.40
2012,06,15,11,36,481.80
2012,06,15,11,37,466.10
2012,06,15,11,38,454.00
2012,06,15,11,39,441.80
2012,06,15,11,40,418.80
2012,06,15,11,41,412.10
2012,06,15,11,42,407.30
2012,06,15,11,43,403.80
2012,06,15,11,44,399.60
2012,06,15,11,45,393.30
2012,06,15,11,46,385.90
2012,06,15,11,47,380.20
2012,06,15,11,48,378.00
2012,06,15,11,49,377.00
2012,06,15,11,50,374.10
2012,06,15,11,51,370.10
2012,06,15,11,52,366.60
2012,06,15,11,53,362.30
2012,06,15,11,54,359.90
2012,06,15,11,55,359.00
2012,06,15,11,56,358.30
2012,06,15,11,57,355.30
2012,06,15,11,58,351.30
2012,06,15,11,59,348.80
2012,06,15,12,00,345.80
2012,06,15,12,01,345.00
2012,06,15,12,02,348.40
2012,06,15,12,03,361.10
2012,06,15,12,04,373.70
2012,06,15,12,05,381.80
2012,06,15,12,06,381.40
2012,06,15,12,07,372.00
2012,06,15,12,08,356.70
2012,06,15,12,09,339.60
2012,06,15,12,10,326.00
2012,06,15,12,11,319.70
2012,06,15,12,12,318.40
2012,06,15,12,13,320.60
2012,06,15,12,14,325.40
2012,06,15,12,15,337.10
2012,06,15,12,16,355.10
2012,06,15,12,17,370.70
2012,06,15,12,18,385.10
2012,06,15,12,19,392.00
2012,06,15,12,20,394.90
2012,06,15,12,21,384.20
2012,06,15,12,22,370.20
2012,06,15,12,23,360.80
2012,06,15,12,24,354.80
2012,06,15,12,25,349.70
2012,06,15,12,26,337.20
2012,06,15,12,27,324.50
2012,06,15,12,28,315.50
2012,06,15,12,29,310.50
2012,06,15,12,30,306.80
2012,06,15,12,31,300.30
2012,06,15,12,32,290.20
2012,06,15,12,33,278.70
2012,06,15,12,34,269.10
2012,06,15,12,35,262.90
2012,06,15,12,36,258.20
2012,06,15,12,37,254.40
2012,06,15,12,38,251.00
2012,06,15,12,39,251.60
2012,06,15,12,40,255.40
2012,06,15,12,41,261.70
2012,06,15,12,42,267.50
2012,06,15,12,43,269.00
2012,06,15,12,44,264.70
2012,06,15,12,45,259.70
2012,06,15,12,46,254.40
2012,06,15,12,47,250.70
2012,06,15,12,48,247.80
2012,06,15,12,49,241.60
2012,06,15,12,50,237.80
2012,06,15,12,51,237.00
2012,06,15,12,52,238.60
2012,06,15,12,53,240.80
2012,06,15,12,54,238.70
2012,06,15,12,55,234.70
2012,06,15,12,56,227.80
2012,06,15,12,57,221.00
2012,06,15,12,58,215.90
2012,06,15,12,59,214.00
2012,06,15,13,00,214.00
2012,06,15,13,01,217.50
2012,06,15,13,02,220.00
2012,06,15,13,03,221.60
2012,06,15,13,04,226.00
2012,06,15,13,05,230.00
2012,06,15,13,06,232.00
2012,06,15,13,07,232.00
2012,06,15,13,08,233.40
2012,06,15,13,09,236.40
2012,06,15,13,10,237.00
2012,06,15,13,11,235.80
2012,06,15,13,12,233.30
2012,06,15,13,13,229.70
2012,06,15,13,14,227.40
2012,06,15,13,15,224.00
2012,06,15,13,16,221.70
2012,06,15,13,17,222.50
2012,06,15,13,18,226.20
2012,06,15,13,19,231.90
2012,06,15,13,20,239.70
2012,06,15,13,21,245.80
2012,06,15,13,22,253.00
2012,06,15,13,23,257.50
2012,06,15,13,24,257.40
2012,06,15,13,25,254.50
2012,06,15,13,26,250.70
2012,06,15,13,27,248.30
2012,06,15,13,28,246.00
2012,06,15,13,29,243.80
2012,06,15,13,30,243.00
2012,06,15,13,31,242.30
2012,06,15,13,32,239.00
2012,06,15,13,33,235.10
2012,06,15,13,34,232.60
2012,06,15,13,35,230.40
2012,06,15,13,36,231.80
2012,06,15,13,37,236.60
2012,06,15,13,38,244.50
2012,06,15,13,39,252.30
2012,06,15,13,40,260.60
2012,06,15,13,41,268.80
2012,06,15,13,42,272.00
2012,06,15,13,43,268.40
2012,06,15,13,44,264.50
2012,06,15,13,45,265.20
2012,06,15,13,46,272.40
2012,06,15,13,47,285.00
2012,06,15,13,48,299.70
2012,06,15,13,49,315.30
2012,06,15,13,50,335.20
2012,06,15,13,51,360.10
2012,06,15,13,52,397.10
2012,06,15,13,53,434.30
2012,06,15,13,54,427.10
2012,06,15,13,55,400.00
2012,06,15,13,56,377.90
2012,06,15,13,57,355.90
2012,06,15,13,58,327.40
2012,06,15,13,59,305.50
2012,06,15,14,00,292.60
2012,06,15,14,01,288.40
2012,06,15,14,02,291.90
2012,06,15,14,03,297.50
2012,06,15,14,04,300.50
2012,06,15,14,05,298.40
2012,06,15,14,06,296.20
2012,06,15,14,07,296.10
2012,06,15,14,08,299.70
2012,06,15,14,09,304.60
2012,06,15,14,10,310.30
2012,06,15,14,11,310.60
2012,06,15,14,12,303.80
2012,06,15,14,13,290.90
2012,06,15,14,14,278.50
2012,06,15,14,15,274.00
2012,06,15,14,16,276.40
2012,06,15,14,17,278.70
2012,06,15,14,18,276.70
2012,06,15,14,19,267.80
2012,06,15,14,20,256.30
2012,06,15,14,21,248.80
2012,06,15,14,22,243.70
2012,06,15,14,23,243.40
2012,06,15,14,24,247.10
2012,06,15,14,25,254.30
2012,06,15,14,26,262.40
2012,06,15,14,27,264.90
2012,06,15,14,28,262.00
2012,06,15,14,29,257.60
2012,06,15,14,30,255.00
2012,06,15,14,31,255.80
2012,06,15,14,32,255.20
2012,06,15,14,33,249.30
2012,06,15,14,34,239.60
2012,06,15,14,35,230.90
2012,06,15,14,36,221.20
2012,06,15,14,37,210.50
2012,06,15,14,38,206.00
2012,06,15,14,39,205.40
2012,06,15,14,40,203.20
2012,06,15,14,41,200.40
2012,06,15,14,42,196.50
2012,06,15,14,43,193.50
2012,06,15,14,44,192.20
2012,06,15,14,45,190.20
2012,06,15,14,46,190.00
2012,06,15,14,47,190.00
2012,06,15,14,48,190.00
2012,06,15,14,49,190.00
2012,06,15,14,50,190.00
2012,06,15,14,51,190.00
2012,06,15,14,52,188.50
2012,06,15,14,53,188.00
2012,06,15,14,54,190.00
2012,06,15,14,55,194.00
2012,06,15,14,56,200.90
2012,06,15,14,57,208.90
2012,06,15,14,58,215.50
2012,06,15,14,59,222.10
2012,06,15,15,00,233.00
2012,06,15,15,01,244.10
2012,06,15,15,02,256.00
2012,06,15,15,03,264.10
2012,06,15,15,04,264.00
2012,06,15,15,05,258.40
2012,06,15,15,06,251.40
2012,06,15,15,07,240.80
2012,06,15,15,08,227.70
2012,06,15,15,09,212.80
2012,06,15,15,10,195.30
2012,06,15,15,11,181.20
2012,06,15,15,12,173.50
2012,06,15,15,13,171.30
2012,06,15,15,14,174.20
2012,06,15,15,15,180.40
2012,06,15,15,16,186.80
2012,06,15,15,17,194.80
2012,06,15,15,18,202.30
2012,06,15,15,19,210.10
2012,06,15,15,20,215.80
2012,06,15,15,21,212.90
2012,06,15,15,22,208.00
2012,06,15,15,23,208.10
2012,06,15,15,24,217.30
2012,06,15,15,25,233.20
2012,06,15,15,26,247.70
2012,06,15,15,27,258.40
2012,06,15,15,28,266.90
2012,06,15,15,29,270.40
2012,06,15,15,30,265.40
2012,06,15,15,31,257.70
2012,06,15,15,32,251.60
2012,06,15,15,33,248.90
2012,06,15,15,34,244.70
2012,06,15,15,35,238.40
2012,06,15,15,36,234.40
2012,06,15,15,37,231.70
2012,06,15,15,38,226.90
2012,06,15,15,39,214.70
2012,06,15,15,40,203.90
2012,06,15,15,41,196.10
2012,06,15,15,42,193.00
2012,06,15,15,43,191.00
2012,06,15,15,44,188.40
2012,06,15,15,45,186.10
2012,06,15,15,46,182.40
2012,06,15,15,47,178.80
2012,06,15,15,48,176.70
2012,06,15,15,49,172.80
2012,06,15,15,50,167.90
2012,06,15,15,51,163.10
2012,06,15,15,52,157.60
2012,06,15,15,53,155.10
2012,06,15,15,54,156.20
2012,06,15,15,55,162.40
2012,06,15,15,56,166.60
2012,06,15,15,57,172.10
2012,06,15,15,58,175.00
2012,06,15,15,59,176.00
2012,06,15,16,00,174.60
2012,06,15,16,01,172.50
2012,06,15,16,02,167.70
2012,06,15,16,03,161.40
2012,06,15,16,04,155.10
2012,06,15,16,05,150.10
2012,06,15,16,06,146.30
2012,06,15,16,07,145.00
2012,06,15,16,08,147.20
2012,06,15,16,09,148.70
2012,06,15,16,10,150.60
2012,06,15,16,11,149.10
2012,06,15,16,12,148.00
2012,06,15,16,13,148.00
2012,06,15,16,14,148.00
2012,06,15,16,15,146.20
2012,06,15,16,16,142.90
2012,06,15,16,17,142.00
2012,06,15,16,18,143.50
2012,06,15,16,19,148.50
2012,06,15,16,20,152.60
2012,06,15,16,21,150.50
2012,06,15,16,22,146.20
2012,06,15,16,23,140.70
2012,06,15,16,24,139.00
2012,06,15,16,25,139.00
2012,06,15,16,26,139.00
2012,06,15,16,27,141.40
2012,06,15,16,28,142.00
2012,06,15,16,29,149.30
2012,06,15,16,30,151.00
2012,06,15,16,31,151.00
2012,06,15,16,32,150.10
2012,06,15,16,33,148.40
2012,06,15,16,34,145.40
2012,06,15,16,35,142.50
2012,06,15,16,36,142.00
2012,06,15,16,37,142.00
2012,06,15,16,38,140.30
2012,06,15,16,39,135.60
2012,06,15,16,40,130.10
2012,06,15,16,41,124.10
2012,06,15,16,42,119.20
2012,06,15,16,43,118.00
2012,06,15,16,44,119.50
2012,06,15,16,45,120.00
2012,06,15,16,46,121.20
2012,06,15,16,47,122.50
2012,06,15,16,48,120.70
2012,06,15,16,49,119.10
2012,06,15,16,50,117.00
2012,06,15,16,51,114.80
2012,06,15,16,52,113.30
2012,06,15,16,53,113.00
2012,06,15,16,54,114.00
2012,06,15,16,55,114.30
2012,06,15,16,56,116.00
2012,06,15,16,57,116.00
2012,06,15,16,58,115.10
2012,06,15,16,59,113.50
2012,06,15,17,00,108.90
2012,06,15,17,01,104.70
2012,06,15,17,02,98.90
2012,06,15,17,03,92.70
2012,06,15,17,04,88.90
2012,06,15,17,05,82.50
2012,06,15,17,06,77.70
2012,06,15,17,07,73.90